Wetterdaten: Mittwoch, 12.03.2014
Datum Zeit Temperatur Luftfeuchte Luftdruck Regen Wind Richtung Richtung Taupunkt Windchill Windben
12.03.2014 00:00 -3,2 C 79 % 1026,6 hPa 0,0 l/m 0,0 km/h (0 Bft) O-SO 112 -6,3 C -2,6 C 0,0 km/h (0 Bft)
12.03.2014 00:05 -3,3 C 79 % 1026,6 hPa 0,0 l/m 0,0 km/h (0 Bft) O-SO 112 -6,4 C -2,6 C 0,0 km/h (0 Bft)
12.03.2014 00:10 -3,1 C 80 % 1026,8 hPa 0,0 l/m 0,0 km/h (0 Bft) O-SO 112 -6,0 C -2,6 C 0,0 km/h (0 Bft)
12.03.2014 00:15 -3,3 C 79 % 1026,8 hPa 0,0 l/m 0,0 km/h (0 Bft) O-SO 112 -6,4 C -2,6 C 0,0 km/h (0 Bft)
12.03.2014 00:20 -3,1 C 80 % 1026,8 hPa 0,0 l/m 0,0 km/h (0 Bft) O-SO 112 -6,0 C -2,6 C 0,0 km/h (0 Bft)
12.03.2014 00:25 -2,8 C 80 % 1026,8 hPa 0,0 l/m 0,0 km/h (0 Bft) O-SO 112 -5,8 C -2,6 C 0,0 km/h (0 Bft)
12.03.2014 00:30 -1,8 C 82 % 1026,5 hPa 0,0 l/m 0,0 km/h (0 Bft) O-SO 112 -4,5 C -2,6 C 0,0 km/h (0 Bft)
12.03.2014 00:35 -2,1 C 81 % 1026,5 hPa 0,0 l/m 0,0 km/h (0 Bft) O-SO 112 -4,9 C -2,6 C 0,0 km/h (0 Bft)
12.03.2014 00:40 -2,7 C 81 % 1026,5 hPa 0,0 l/m 0,0 km/h (0 Bft) O-SO 112 -5,5 C -2,6 C 0,0 km/h (0 Bft)
12.03.2014 00:45 -2,8 C 81 % 1026,5 hPa 0,0 l/m 0,0 km/h (0 Bft) O-SO 112 -5,6 C -2,6 C 0,0 km/h (0 Bft)
12.03.2014 00:50 -2,9 C 80 % 1026,2 hPa 0,0 l/m 0,0 km/h (0 Bft) O-SO 112 -5,9 C -2,6 C 0,0 km/h (0 Bft)
12.03.2014 00:55 -3,0 C 81 % 1026,2 hPa 0,0 l/m 0,0 km/h (0 Bft) O-SO 112 -5,8 C -2,6 C 0,0 km/h (0 Bft)
12.03.2014 01:00 -2,8 C 81 % 1026,2 hPa 0,0 l/m 0,0 km/h (0 Bft) O-SO 112 -5,6 C -2,6 C 0,0 km/h (0 Bft)
12.03.2014 01:05 -2,8 C 81 % 1026,2 hPa 0,0 l/m 0,0 km/h (0 Bft) O-SO 112 -5,6 C -2,6 C 0,0 km/h (0 Bft)
12.03.2014 01:10 -3,2 C 81 % 1026,2 hPa 0,0 l/m 0,0 km/h (0 Bft) O-SO 112 -6,0 C -2,6 C 0,0 km/h (0 Bft)
12.03.2014 01:15 -3,2 C 81 % 1026,2 hPa 0,0 l/m 0,0 km/h (0 Bft) O-SO 112 -6,0 C -2,6 C 0,0 km/h (0 Bft)
12.03.2014 01:20 -3,1 C 81 % 1026,2 hPa 0,0 l/m 0,0 km/h (0 Bft) O-SO 112 -5,9 C -2,6 C 0,0 km/h (0 Bft)
12.03.2014 01:25 -3,2 C 81 % 1026,2 hPa 0,0 l/m 0,0 km/h (0 Bft) O-SO 112 -6,0 C -2,6 C 0,0 km/h (0 Bft)
12.03.2014 01:30 -3,1 C 82 % 1026,2 hPa 0,0 l/m 0,0 km/h (0 Bft) O-SO 112 -5,7 C -2,6 C 0,0 km/h (0 Bft)
12.03.2014 01:35 -3,2 C 82 % 1026,2 hPa 0,0 l/m 0,0 km/h (0 Bft) O-SO 112 -5,8 C -2,6 C 0,0 km/h (0 Bft)
12.03.2014 01:40 -3,5 C 82 % 1026,2 hPa 0,0 l/m 0,0 km/h (0 Bft) O-SO 112 -6,1 C -2,6 C 0,0 km/h (0 Bft)
12.03.2014 01:45 -3,6 C 82 % 1026,2 hPa 0,0 l/m 0,0 km/h (0 Bft) O-SO 112 -6,2 C -2,6 C 0,0 km/h (0 Bft)
12.03.2014 01:50 -3,5 C 82 % 1026,4 hPa 0,0 l/m 0,0 km/h (0 Bft) O-SO 112 -6,1 C -2,6 C 0,0 km/h (0 Bft)
12.03.2014 01:55 -3,8 C 82 % 1026,4 hPa 0,0 l/m 0,0 km/h (0 Bft) O-SO 112 -6,4 C -2,6 C 0,0 km/h (0 Bft)
12.03.2014 02:00 -3,1 C 83 % 1026,4 hPa 0,0 l/m 0,0 km/h (0 Bft) O-SO 112 -5,6 C -2,6 C 0,0 km/h (0 Bft)
12.03.2014 02:05 -3,2 C 83 % 1026,4 hPa 0,0 l/m 0,0 km/h (0 Bft) O-SO 112 -5,7 C -2,6 C 0,0 km/h (0 Bft)
12.03.2014 02:10 -3,1 C 84 % 1026,5 hPa 0,0 l/m 0,0 km/h (0 Bft) O-SO 112 -5,4 C -2,6 C 0,0 km/h (0 Bft)
12.03.2014 02:15 -3,3 C 84 % 1026,5 hPa 0,0 l/m 0,0 km/h (0 Bft) O-SO 112 -5,6 C -2,6 C 0,0 km/h (0 Bft)
12.03.2014 02:20 -3,5 C 83 % 1026,5 hPa 0,0 l/m 0,0 km/h (0 Bft) O-SO 112 -6,0 C -2,6 C 0,0 km/h (0 Bft)
12.03.2014 02:25 -3,7 C 83 % 1026,5 hPa 0,0 l/m 0,0 km/h (0 Bft) O-SO 112 -6,2 C -2,6 C 0,0 km/h (0 Bft)
12.03.2014 02:30 -3,9 C 83 % 1026,2 hPa 0,0 l/m 0,0 km/h (0 Bft) O-SO 112 -6,4 C -2,6 C 0,0 km/h (0 Bft)
12.03.2014 02:35 -4,0 C 83 % 1026,2 hPa 0,0 l/m 0,0 km/h (0 Bft) O-SO 112 -6,4 C -2,6 C 0,0 km/h (0 Bft)
12.03.2014 02:40 -3,8 C 84 % 1026,2 hPa 0,0 l/m 0,0 km/h (0 Bft) O-SO 112 -6,1 C -2,6 C 0,0 km/h (0 Bft)
12.03.2014 02:45 -3,5 C 85 % 1026,2 hPa 0,0 l/m 0,0 km/h (0 Bft) O-SO 112 -5,6 C -2,6 C 0,0 km/h (0 Bft)
12.03.2014 02:49 -3,9 C 85 % 1026,1 hPa 0,0 l/m 0,0 km/h (0 Bft) O-SO 112 -6,0 C -2,6 C 0,0 km/h (0 Bft)
12.03.2014 02:50 -3,9 C 85 % 1026,1 hPa 0,0 l/m 0,0 km/h (0 Bft) O-SO 112 -6,0 C -2,6 C 0,0 km/h (0 Bft)
12.03.2014 02:55 -3,6 C 85 % 1026,1 hPa 0,0 l/m 0,0 km/h (0 Bft) O-SO 112 -5,7 C -2,6 C 0,0 km/h (0 Bft)
12.03.2014 03:00 -3,7 C 85 % 1026,1 hPa 0,0 l/m 0,0 km/h (0 Bft) O-SO 112 -5,8 C -2,6 C 0,0 km/h (0 Bft)
12.03.2014 03:05 -3,4 C 86 % 1026,1 hPa 0,0 l/m 0,0 km/h (0 Bft) O-SO 112 -5,4 C -2,6 C 0,0 km/h (0 Bft)
12.03.2014 03:10 -3,9 C 85 % 1026,0 hPa 0,0 l/m 0,0 km/h (0 Bft) O-SO 112 -6,0 C -2,6 C 0,0 km/h (0 Bft)
12.03.2014 03:15 -3,8 C 85 % 1026,0 hPa 0,0 l/m 0,0 km/h (0 Bft) O-SO 112 -5,9 C -2,6 C 0,0 km/h (0 Bft)
12.03.2014 03:20 -3,9 C 85 % 1026,0 hPa 0,0 l/m 0,0 km/h (0 Bft) O-SO 112 -6,0 C -2,6 C 0,0 km/h (0 Bft)
12.03.2014 03:25 -3,9 C 85 % 1026,0 hPa 0,0 l/m 0,0 km/h (0 Bft) O-SO 112 -6,0 C -2,6 C 0,0 km/h (0 Bft)
12.03.2014 03:30 -3,5 C 86 % 1026,1 hPa 0,0 l/m 0,0 km/h (0 Bft) O-SO 112 -5,5 C -2,6 C 0,0 km/h (0 Bft)
12.03.2014 03:35 -3,5 C 87 % 1026,1 hPa 0,0 l/m 0,0 km/h (0 Bft) O-SO 112 -5,3 C -2,6 C 0,0 km/h (0 Bft)
12.03.2014 03:40 -4,0 C 86 % 1026,1 hPa 0,0 l/m 0,0 km/h (0 Bft) O-SO 112 -6,0 C -2,6 C 0,0 km/h (0 Bft)
12.03.2014 03:45 -4,4 C 86 % 1026,1 hPa 0,0 l/m 0,0 km/h (0 Bft) O-SO 112 -6,4 C -2,6 C 0,0 km/h (0 Bft)
12.03.2014 03:50 -4,5 C 86 % 1026,1 hPa 0,0 l/m 0,0 km/h (0 Bft) O-SO 112 -6,5 C -2,6 C 0,0 km/h (0 Bft)
12.03.2014 03:55 -4,6 C 85 % 1026,1 hPa 0,0 l/m 0,0 km/h (0 Bft) O-SO 112 -6,7 C -2,6 C 0,0 km/h (0 Bft)
12.03.2014 04:01 -4,3 C 86 % 1026,1 hPa 0,0 l/m 0,0 km/h (0 Bft) O-SO 112 -6,3 C -2,6 C 0,0 km/h (0 Bft)
12.03.2014 04:05 -4,3 C 86 % 1026,1 hPa 0,0 l/m 0,0 km/h (0 Bft) O-SO 112 -6,3 C -2,6 C 0,0 km/h (0 Bft)
12.03.2014 04:10 -4,5 C 86 % 1026,1 hPa 0,0 l/m 0,0 km/h (0 Bft) O-SO 112 -6,5 C -2,6 C 0,0 km/h (0 Bft)
12.03.2014 04:15 -4,6 C 86 % 1026,1 hPa 0,0 l/m 0,0 km/h (0 Bft) O-SO 112 -6,6 C -2,6 C 0,0 km/h (0 Bft)
12.03.2014 04:20 -4,7 C 86 % 1026,1 hPa 0,0 l/m 0,0 km/h (0 Bft) O-SO 112 -6,7 C -2,6 C 0,0 km/h (0 Bft)
12.03.2014 04:25 -4,9 C 85 % 1026,1 hPa 0,0 l/m 0,0 km/h (0 Bft) O-SO 112 -7,0 C -2,6 C 0,0 km/h (0 Bft)
12.03.2014 04:30 -4,8 C 85 % 1026,2 hPa 0,0 l/m 0,0 km/h (0 Bft) O-SO 112 -6,9 C -2,6 C 0,0 km/h (0 Bft)
12.03.2014 04:35 -4,8 C 86 % 1026,2 hPa 0,0 l/m 0,0 km/h (0 Bft) O-SO 112 -6,8 C -2,6 C 0,0 km/h (0 Bft)
12.03.2014 04:40 -4,8 C 86 % 1026,2 hPa 0,0 l/m 0,0 km/h (0 Bft) O-SO 112 -6,8 C -2,6 C 0,0 km/h (0 Bft)
12.03.2014 04:45 -4,8 C 86 % 1026,2 hPa 0,0 l/m 0,0 km/h (0 Bft) O-SO 112 -6,8 C -2,6 C 0,0 km/h (0 Bft)
12.03.2014 04:50 -4,6 C 86 % 1026,2 hPa 0,0 l/m 0,0 km/h (0 Bft) O-SO 112 -6,6 C -2,6 C 0,0 km/h (0 Bft)
12.03.2014 04:55 -4,6 C 86 % 1026,2 hPa 0,0 l/m 0,0 km/h (0 Bft) O-SO 112 -6,6 C -2,6 C 0,0 km/h (0 Bft)
12.03.2014 05:00 -4,4 C 86 % 1026,2 hPa 0,0 l/m 0,0 km/h (0 Bft) O-SO 112 -6,4 C -2,6 C 0,0 km/h (0 Bft)
12.03.2014 05:05 -4,4 C 86 % 1026,2 hPa 0,0 l/m 0,0 km/h (0 Bft) O-SO 112 -6,4 C -2,6 C 0,0 km/h (0 Bft)
12.03.2014 05:10 -4,5 C 86 % 1026,2 hPa 0,0 l/m 0,0 km/h (0 Bft) O-SO 112 -6,5 C -2,6 C 0,0 km/h (0 Bft)
12.03.2014 05:15 -4,5 C 86 % 1026,2 hPa 0,0 l/m 0,0 km/h (0 Bft) O-SO 112 -6,5 C -2,6 C 0,0 km/h (0 Bft)
12.03.2014 05:20 -4,0 C 87 % 1026,2 hPa 0,0 l/m 0,0 km/h (0 Bft) O-SO 112 -5,8 C -2,6 C 0,0 km/h (0 Bft)
12.03.2014 05:25 -4,3 C 86 % 1026,2 hPa 0,0 l/m 0,0 km/h (0 Bft) O-SO 112 -6,3 C -2,6 C 0,0 km/h (0 Bft)
12.03.2014 05:30 -4,3 C 86 % 1026,0 hPa 0,0 l/m 0,0 km/h (0 Bft) O-SO 112 -6,3 C -2,6 C 0,0 km/h (0 Bft)
12.03.2014 05:35 -4,4 C 86 % 1026,0 hPa 0,0 l/m 0,0 km/h (0 Bft) O-SO 112 -6,4 C -2,6 C 0,0 km/h (0 Bft)
12.03.2014 05:40 -4,2 C 86 % 1026,0 hPa 0,0 l/m 0,0 km/h (0 Bft) O-SO 112 -6,2 C -2,6 C 0,0 km/h (0 Bft)
12.03.2014 05:45 -3,7 C 87 % 1026,0 hPa 0,0 l/m 0,0 km/h (0 Bft) O-SO 112 -5,5 C -2,6 C 0,0 km/h (0 Bft)
12.03.2014 05:50 -4,2 C 87 % 1026,2 hPa 0,0 l/m 0,0 km/h (0 Bft) O-SO 112 -6,0 C -2,6 C 0,0 km/h (0 Bft)
12.03.2014 05:55 -4,5 C 87 % 1026,2 hPa 0,0 l/m 0,0 km/h (0 Bft) O-SO 112 -6,3 C -2,6 C 0,0 km/h (0 Bft)
12.03.2014 06:00 -4,6 C 87 % 1026,2 hPa 0,0 l/m 0,0 km/h (0 Bft) O-SO 112 -6,4 C -2,6 C 0,0 km/h (0 Bft)
12.03.2014 06:05 -4,3 C 87 % 1026,2 hPa 0,0 l/m 0,0 km/h (0 Bft) O-SO 112 -6,1 C -2,6 C 0,0 km/h (0 Bft)
12.03.2014 06:10 -4,5 C 87 % 1026,1 hPa 0,0 l/m 0,0 km/h (0 Bft) O-SO 112 -6,3 C -2,6 C 0,0 km/h (0 Bft)
12.03.2014 06:15 -4,3 C 87 % 1026,1 hPa 0,0 l/m 0,0 km/h (0 Bft) O-SO 112 -6,1 C -2,6 C 0,0 km/h (0 Bft)
12.03.2014 06:20 -4,3 C 87 % 1026,1 hPa 0,0 l/m 0,0 km/h (0 Bft) O-SO 112 -6,1 C -2,6 C 0,0 km/h (0 Bft)
12.03.2014 06:25 -4,3 C 87 % 1026,1 hPa 0,0 l/m 0,0 km/h (0 Bft) O-SO 112 -6,1 C -2,6 C 0,0 km/h (0 Bft)
12.03.2014 06:30 -4,3 C 87 % 1026,2 hPa 0,0 l/m 0,0 km/h (0 Bft) O-SO 112 -6,1 C -2,6 C 0,0 km/h (0 Bft)
12.03.2014 06:35 -4,7 C 87 % 1026,2 hPa 0,0 l/m 0,0 km/h (0 Bft) O-SO 112 -6,5 C -2,6 C 0,0 km/h (0 Bft)
12.03.2014 06:40 -4,3 C 87 % 1026,2 hPa 0,0 l/m 0,0 km/h (0 Bft) O-SO 112 -6,1 C -2,6 C 0,0 km/h (0 Bft)
12.03.2014 06:45 -4,6 C 87 % 1026,2 hPa 0,0 l/m 0,0 km/h (0 Bft) O-SO 112 -6,4 C -2,6 C 0,0 km/h (0 Bft)
12.03.2014 06:50 -4,7 C 87 % 1026,3 hPa 0,0 l/m 0,0 km/h (0 Bft) O-SO 112 -6,5 C -2,6 C 0,0 km/h (0 Bft)
12.03.2014 06:55 -4,7 C 87 % 1026,3 hPa 0,0 l/m 0,0 km/h (0 Bft) O-SO 112 -6,5 C -2,6 C 0,0 km/h (0 Bft)
12.03.2014 07:00 -4,6 C 87 % 1026,3 hPa 0,0 l/m 0,0 km/h (0 Bft) O-SO 112 -6,4 C -2,6 C 0,0 km/h (0 Bft)
12.03.2014 07:05 -4,6 C 87 % 1026,3 hPa 0,0 l/m 0,0 km/h (0 Bft) O-SO 112 -6,4 C -2,6 C 0,0 km/h (0 Bft)
12.03.2014 07:10 -4,8 C 87 % 1026,4 hPa 0,0 l/m 0,0 km/h (0 Bft) O-SO 112 -6,6 C -2,6 C 0,0 km/h (0 Bft)
12.03.2014 07:15 -4,6 C 87 % 1026,4 hPa 0,0 l/m 0,0 km/h (0 Bft) O-SO 112 -6,4 C -2,6 C 0,0 km/h (0 Bft)
12.03.2014 07:20 -4,6 C 87 % 1026,4 hPa 0,0 l/m 0,0 km/h (0 Bft) O-SO 112 -6,4 C -2,6 C 0,0 km/h (0 Bft)
12.03.2014 07:25 -4,5 C 87 % 1026,4 hPa 0,0 l/m 0,0 km/h (0 Bft) O-SO 112 -6,3 C -2,6 C 0,0 km/h (0 Bft)
12.03.2014 07:30 -4,2 C 87 % 1026,6 hPa 0,0 l/m 0,0 km/h (0 Bft) O-SO 112 -6,0 C -2,6 C 0,0 km/h (0 Bft)
12.03.2014 07:35 -4,3 C 87 % 1026,6 hPa 0,0 l/m 0,0 km/h (0 Bft) NO 45 -6,1 C -4,2 C 0,0 km/h (0 Bft)
12.03.2014 07:40 -4,1 C 87 % 1026,6 hPa 0,0 l/m 0,0 km/h (0 Bft) NO 45 -5,9 C -4,1 C 0,0 km/h (0 Bft)
12.03.2014 07:44 -3,9 C 87 % 1026,6 hPa 0,0 l/m 0,0 km/h (0 Bft) NO 45 -5,7 C -4,1 C 0,0 km/h (0 Bft)
12.03.2014 07:45 -3,9 C 87 % 1026,7 hPa 0,0 l/m 0,0 km/h (0 Bft) NO 45 -5,7 C -4,0 C 0,0 km/h (0 Bft)
12.03.2014 07:50 -3,9 C 87 % 1026,7 hPa 0,0 l/m 0,0 km/h (0 Bft) NO 45 -5,7 C -4,0 C 0,0 km/h (0 Bft)
12.03.2014 07:55 -3,8 C 87 % 1026,7 hPa 0,0 l/m 0,0 km/h (0 Bft) NO 45 -5,6 C -4,0 C 0,0 km/h (0 Bft)
12.03.2014 08:00 -3,5 C 87 % 1026,7 hPa 0,0 l/m 0,0 km/h (0 Bft) NO 45 -5,3 C -4,0 C 0,0 km/h (0 Bft)
12.03.2014 08:05 -3,5 C 87 % 1026,7 hPa 0,0 l/m 0,0 km/h (0 Bft) NO 45 -5,3 C -4,0 C 0,0 km/h (0 Bft)
12.03.2014 08:10 -3,2 C 88 % 1026,9 hPa 0,0 l/m 0,0 km/h (0 Bft) NO 45 -4,9 C -4,0 C 0,0 km/h (0 Bft)
12.03.2014 08:15 -2,8 C 88 % 1026,9 hPa 0,0 l/m 0,0 km/h (0 Bft) NO 45 -4,5 C -4,0 C 0,0 km/h (0 Bft)
12.03.2014 08:20 -2,3 C 88 % 1026,9 hPa 0,0 l/m 0,0 km/h (0 Bft) NO 45 -4,0 C -4,0 C 0,0 km/h (0 Bft)
12.03.2014 08:25 -1,8 C 88 % 1026,9 hPa 0,0 l/m 0,0 km/h (0 Bft) NO 45 -3,5 C -4,0 C 0,0 km/h (0 Bft)
12.03.2014 08:30 -1,4 C 88 % 1027,1 hPa 0,0 l/m 0,0 km/h (0 Bft) NO 45 -3,1 C -4,0 C 0,0 km/h (0 Bft)
12.03.2014 08:35 -1,4 C 88 % 1027,1 hPa 0,0 l/m 0,0 km/h (0 Bft) NO 45 -3,1 C -4,0 C 0,0 km/h (0 Bft)
12.03.2014 08:40 -0,8 C 88 % 1027,1 hPa 0,0 l/m 0,0 km/h (0 Bft) NO 45 -2,5 C -4,0 C 0,0 km/h (0 Bft)
12.03.2014 08:45 1,3 C 88 % 1027,1 hPa 0,0 l/m 0,0 km/h (0 Bft) NO 45 -0,5 C -4,0 C 0,0 km/h (0 Bft)
12.03.2014 08:50 1,4 C 88 % 1027,4 hPa 0,0 l/m 0,0 km/h (0 Bft) NO 45 -0,4 C -4,0 C 0,0 km/h (0 Bft)
12.03.2014 08:55 1,2 C 88 % 1027,4 hPa 0,0 l/m 0,0 km/h (0 Bft) NO 45 -0,6 C -4,0 C 0,0 km/h (0 Bft)
12.03.2014 09:00 3,6 C 88 % 1027,4 hPa 0,0 l/m 0,0 km/h (0 Bft) NO 45 1,8 C -4,0 C 0,0 km/h (0 Bft)
12.03.2014 09:05 3,4 C 88 % 1027,4 hPa 0,0 l/m 0,0 km/h (0 Bft) NO 45 1,6 C -4,0 C 0,0 km/h (0 Bft)
12.03.2014 09:10 4,1 C 88 % 1027,6 hPa 0,0 l/m 0,0 km/h (0 Bft) NO 45 2,3 C -4,0 C 0,0 km/h (0 Bft)
12.03.2014 09:15 4,4 C 86 % 1027,6 hPa 0,0 l/m 0,0 km/h (0 Bft) NO 45 2,3 C -4,0 C 0,0 km/h (0 Bft)
12.03.2014 09:20 5,7 C 76 % 1027,6 hPa 0,0 l/m 0,0 km/h (0 Bft) NO 45 1,8 C -4,0 C 0,0 km/h (0 Bft)
12.03.2014 09:25 6,6 C 66 % 1027,6 hPa 0,0 l/m 0,0 km/h (0 Bft) NO 45 0,7 C -4,0 C 0,0 km/h (0 Bft)
12.03.2014 09:30 7,8 C 73 % 1028,0 hPa 0,0 l/m 0,0 km/h (0 Bft) NO 45 3,3 C -4,0 C 0,0 km/h (0 Bft)
12.03.2014 09:35 8,4 C 73 % 1028,0 hPa 0,0 l/m 0,0 km/h (0 Bft) NO 45 3,8 C -4,0 C 0,0 km/h (0 Bft)
12.03.2014 09:40 8,2 C 57 % 1028,0 hPa 0,0 l/m 0,0 km/h (0 Bft) NO 45 0,2 C -4,0 C 0,0 km/h (0 Bft)
12.03.2014 09:45 7,6 C 64 % 1028,0 hPa 0,0 l/m 0,0 km/h (0 Bft) NO 45 1,2 C -4,0 C 0,0 km/h (0 Bft)
12.03.2014 09:50 8,1 C 65 % 1028,4 hPa 0,0 l/m 0,0 km/h (0 Bft) NO 45 1,9 C -4,0 C 0,0 km/h (0 Bft)
12.03.2014 09:55 8,1 C 60 % 1028,4 hPa 0,0 l/m 0,0 km/h (0 Bft) NO 45 0,8 C -4,0 C 0,0 km/h (0 Bft)
12.03.2014 10:00 8,9 C 59 % 1028,4 hPa 0,0 l/m 0,0 km/h (0 Bft) NO 45 1,3 C -4,0 C 0,0 km/h (0 Bft)
12.03.2014 10:05 8,6 C 60 % 1028,4 hPa 0,0 l/m 0,0 km/h (0 Bft) NO 45 1,3 C -4,0 C 0,0 km/h (0 Bft)
12.03.2014 10:10 8,3 C 61 % 1028,7 hPa 0,0 l/m 0,0 km/h (0 Bft) NO 45 1,2 C -4,0 C 0,0 km/h (0 Bft)
12.03.2014 10:15 8,7 C 57 % 1028,7 hPa 0,0 l/m 0,0 km/h (0 Bft) NO 45 0,7 C -4,0 C 0,0 km/h (0 Bft)
12.03.2014 10:20 9,7 C 59 % 1028,7 hPa 0,0 l/m 0,0 km/h (0 Bft) NO 45 2,1 C -4,0 C 0,0 km/h (0 Bft)
12.03.2014 10:25 10,2 C 63 % 1028,7 hPa 0,0 l/m 0,0 km/h (0 Bft) NO 45 3,5 C -4,0 C 0,0 km/h (0 Bft)
12.03.2014 10:30 11,6 C 66 % 1028,9 hPa 0,0 l/m 0,0 km/h (0 Bft) NO 45 5,5 C -4,0 C 0,0 km/h (0 Bft)
12.03.2014 10:35 11,5 C 63 % 1028,9 hPa 0,0 l/m 0,0 km/h (0 Bft) NO 45 4,7 C -4,0 C 0,0 km/h (0 Bft)
12.03.2014 10:40 12,0 C 63 % 1028,9 hPa 0,0 l/m 0,0 km/h (0 Bft) NO 45 5,2 C -4,0 C 0,0 km/h (0 Bft)
12.03.2014 10:45 12,2 C 54 % 1028,9 hPa 0,0 l/m 0,0 km/h (0 Bft) NO 45 3,2 C -4,0 C 0,0 km/h (0 Bft)
12.03.2014 10:50 12,4 C 56 % 1029,1 hPa 0,0 l/m 0,0 km/h (0 Bft) NO 45 3,9 C -4,0 C 0,0 km/h (0 Bft)
12.03.2014 10:55 13,3 C 60 % 1029,1 hPa 0,0 l/m 0,0 km/h (0 Bft) NO 45 5,7 C -4,0 C 0,0 km/h (0 Bft)
12.03.2014 11:00 12,9 C 45 % 1029,1 hPa 0,0 l/m 0,0 km/h (0 Bft) NO 45 1,3 C -4,0 C 0,0 km/h (0 Bft)
12.03.2014 11:05 13,2 C 48 % 1029,1 hPa 0,0 l/m 0,0 km/h (0 Bft) NO 45 2,4 C -4,0 C 0,0 km/h (0 Bft)
12.03.2014 11:10 14,4 C 47 % 1029,2 hPa 0,0 l/m 0,0 km/h (0 Bft) NO 45 3,2 C -4,0 C 0,0 km/h (0 Bft)
12.03.2014 11:15 14,2 C 42 % 1029,2 hPa 0,0 l/m 0,0 km/h (0 Bft) NO 45 1,5 C -4,0 C 0,0 km/h (0 Bft)
12.03.2014 11:20 15,2 C 41 % 1029,2 hPa 0,0 l/m 0,0 km/h (0 Bft) NO 45 2,0 C -4,0 C 0,0 km/h (0 Bft)
12.03.2014 11:25 15,1 C 39 % 1029,2 hPa 0,0 l/m 0,0 km/h (0 Bft) NO 45 1,3 C -4,0 C 0,0 km/h (0 Bft)
12.03.2014 11:30 15,4 C 38 % 1029,2 hPa 0,0 l/m 0,0 km/h (0 Bft) NO 45 1,2 C -4,0 C 0,0 km/h (0 Bft)
12.03.2014 11:35 14,7 C 35 % 1029,2 hPa 0,0 l/m 0,0 km/h (0 Bft) NO 45 -0,6 C -4,0 C 0,0 km/h (0 Bft)
12.03.2014 11:40 15,6 C 38 % 1029,2 hPa 0,0 l/m 0,0 km/h (0 Bft) NO 45 1,3 C -4,0 C 0,0 km/h (0 Bft)
12.03.2014 11:45 15,3 C 35 % 1029,2 hPa 0,0 l/m 0,0 km/h (0 Bft) NO 45 -0,1 C -4,0 C 0,0 km/h (0 Bft)
12.03.2014 11:50 14,2 C 34 % 1029,2 hPa 0,0 l/m 0,0 km/h (0 Bft) NO 45 -1,4 C -4,0 C 0,0 km/h (0 Bft)
12.03.2014 11:55 14,9 C 36 % 1029,2 hPa 0,0 l/m 0,0 km/h (0 Bft) NO 45 -0,0 C -4,0 C 0,0 km/h (0 Bft)
12.03.2014 12:00 15,0 C 35 % 1029,2 hPa 0,0 l/m 0,0 km/h (0 Bft) NO 45 -0,3 C -4,0 C 0,0 km/h (0 Bft)
12.03.2014 12:05 14,9 C 34 % 1029,2 hPa 0,0 l/m 0,0 km/h (0 Bft) NO 45 -0,8 C -4,0 C 0,0 km/h (0 Bft)
12.03.2014 12:10 14,0 C 33 % 1029,2 hPa 0,0 l/m 0,0 km/h (0 Bft) NO 45 -2,0 C -4,0 C 0,0 km/h (0 Bft)
12.03.2014 12:15 14,1 C 34 % 1029,2 hPa 0,0 l/m 0,0 km/h (0 Bft) NO 45 -1,5 C -4,0 C 0,0 km/h (0 Bft)
12.03.2014 12:20 13,8 C 35 % 1029,2 hPa 0,0 l/m 0,0 km/h (0 Bft) NO 45 -1,4 C -4,0 C 0,0 km/h (0 Bft)
12.03.2014 12:25 13,8 C 35 % 1029,2 hPa 0,0 l/m 0,0 km/h (0 Bft) NO 45 -1,4 C -4,0 C 0,0 km/h (0 Bft)
12.03.2014 12:30 14,0 C 34 % 1029,3 hPa 0,0 l/m 0,0 km/h (0 Bft) NO 45 -1,6 C -4,0 C 0,0 km/h (0 Bft)
12.03.2014 12:35 13,7 C 35 % 1029,3 hPa 0,0 l/m 0,0 km/h (0 Bft) NO 45 -1,5 C -4,0 C 0,0 km/h (0 Bft)
12.03.2014 12:40 14,3 C 36 % 1029,3 hPa 0,0 l/m 0,0 km/h (0 Bft) NO 45 -0,6 C -4,0 C 0,0 km/h (0 Bft)
12.03.2014 12:44 14,0 C 34 % 1029,3 hPa 0,0 l/m 0,0 km/h (0 Bft) NO 45 -1,6 C -4,0 C 0,0 km/h (0 Bft)
12.03.2014 12:45 14,2 C 35 % 1029,2 hPa 0,0 l/m 0,0 km/h (0 Bft) NO 45 -1,0 C -4,0 C 0,0 km/h (0 Bft)
12.03.2014 12:50 14,2 C 35 % 1029,2 hPa 0,0 l/m 0,0 km/h (0 Bft) NO 45 -1,0 C -4,0 C 0,0 km/h (0 Bft)
12.03.2014 12:55 14,2 C 35 % 1029,2 hPa 0,0 l/m 0,0 km/h (0 Bft) NO 45 -1,0 C -4,0 C 0,0 km/h (0 Bft)
12.03.2014 13:00 14,2 C 35 % 1029,2 hPa 0,0 l/m 0,0 km/h (0 Bft) NO 45 -1,0 C -4,0 C 0,0 km/h (0 Bft)
12.03.2014 13:05 14,0 C 34 % 1029,2 hPa 0,0 l/m 0,0 km/h (0 Bft) NO 45 -1,6 C -4,0 C 0,0 km/h (0 Bft)
12.03.2014 13:10 14,0 C 35 % 1029,2 hPa 0,0 l/m 0,0 km/h (0 Bft) NO 45 -1,2 C -4,0 C 0,0 km/h (0 Bft)
12.03.2014 13:15 14,3 C 35 % 1029,2 hPa 0,0 l/m 0,0 km/h (0 Bft) NO 45 -0,9 C -4,0 C 0,0 km/h (0 Bft)
12.03.2014 13:20 14,4 C 35 % 1029,2 hPa 0,0 l/m 0,0 km/h (0 Bft) NO 45 -0,9 C -4,0 C 0,0 km/h (0 Bft)
12.03.2014 13:25 14,3 C 37 % 1029,2 hPa 0,0 l/m 0,0 km/h (0 Bft) NO 45 -0,2 C -4,0 C 0,0 km/h (0 Bft)
12.03.2014 13:30 15,0 C 35 % 1029,1 hPa 0,0 l/m 0,0 km/h (0 Bft) NO 45 -0,3 C -4,0 C 0,0 km/h (0 Bft)
12.03.2014 13:35 14,6 C 36 % 1029,1 hPa 0,0 l/m 0,0 km/h (0 Bft) NO 45 -0,3 C -4,0 C 0,0 km/h (0 Bft)
12.03.2014 13:40 14,8 C 36 % 1029,1 hPa 0,0 l/m 0,0 km/h (0 Bft) NO 45 -0,1 C -4,0 C 0,0 km/h (0 Bft)
12.03.2014 13:45 15,0 C 37 % 1029,1 hPa 0,0 l/m 0,0 km/h (0 Bft) NO 45 0,4 C -4,0 C 0,0 km/h (0 Bft)
12.03.2014 13:50 15,1 C 36 % 1028,9 hPa 0,0 l/m 0,0 km/h (0 Bft) NO 45 0,1 C -4,0 C 0,0 km/h (0 Bft)
12.03.2014 13:55 15,2 C 35 % 1028,9 hPa 0,0 l/m 0,0 km/h (0 Bft) NO 45 -0,2 C -4,0 C 0,0 km/h (0 Bft)
12.03.2014 14:00 14,8 C 36 % 1028,9 hPa 0,0 l/m 0,0 km/h (0 Bft) NO 45 -0,1 C -4,0 C 0,0 km/h (0 Bft)
12.03.2014 14:05 15,0 C 36 % 1028,9 hPa 0,0 l/m 0,0 km/h (0 Bft) NO 45 0,1 C -4,0 C 0,0 km/h (0 Bft)
12.03.2014 14:10 14,7 C 35 % 1028,9 hPa 0,0 l/m 0,0 km/h (0 Bft) NO 45 -0,6 C -4,0 C 0,0 km/h (0 Bft)
12.03.2014 14:15 15,1 C 36 % 1028,9 hPa 0,0 l/m 0,0 km/h (0 Bft) NO 45 0,1 C -4,0 C 0,0 km/h (0 Bft)
12.03.2014 14:20 15,0 C 35 % 1028,9 hPa 0,0 l/m 0,0 km/h (0 Bft) NO 45 -0,3 C -4,0 C 0,0 km/h (0 Bft)
12.03.2014 14:25 15,5 C 36 % 1028,9 hPa 0,0 l/m 0,0 km/h (0 Bft) NO 45 0,5 C -4,0 C 0,0 km/h (0 Bft)
12.03.2014 14:30 15,5 C 33 % 1028,9 hPa 0,0 l/m 0,0 km/h (0 Bft) NO 45 -0,7 C -4,0 C 0,0 km/h (0 Bft)
12.03.2014 14:35 15,5 C 33 % 1028,9 hPa 0,0 l/m 0,0 km/h (0 Bft) NO 45 -0,7 C -4,0 C 0,0 km/h (0 Bft)
12.03.2014 14:40 16,0 C 34 % 1028,9 hPa 0,0 l/m 0,0 km/h (0 Bft) NO 45 0,2 C -4,0 C 0,0 km/h (0 Bft)
12.03.2014 14:45 16,0 C 34 % 1028,9 hPa 0,0 l/m 0,0 km/h (0 Bft) NO 45 0,2 C -4,0 C 0,0 km/h (0 Bft)
12.03.2014 14:50 16,1 C 33 % 1028,6 hPa 0,0 l/m 0,0 km/h (0 Bft) NO 45 -0,2 C -4,0 C 0,0 km/h (0 Bft)
12.03.2014 14:55 16,1 C 32 % 1028,6 hPa 0,0 l/m 0,0 km/h (0 Bft) NO 45 -0,6 C -4,0 C 0,0 km/h (0 Bft)
12.03.2014 15:00 16,0 C 33 % 1028,6 hPa 0,0 l/m 0,0 km/h (0 Bft) NO 45 -0,3 C -4,0 C 0,0 km/h (0 Bft)
12.03.2014 15:05 15,9 C 32 % 1028,6 hPa 0,0 l/m 0,0 km/h (0 Bft) NO 45 -0,8 C -4,0 C 0,0 km/h (0 Bft)
12.03.2014 15:10 16,2 C 32 % 1028,6 hPa 0,0 l/m 0,0 km/h (0 Bft) NO 45 -0,5 C -4,0 C 0,0 km/h (0 Bft)
12.03.2014 15:15 15,7 C 31 % 1028,6 hPa 0,0 l/m 0,0 km/h (0 Bft) NO 45 -1,4 C -4,0 C 0,0 km/h (0 Bft)
12.03.2014 15:20 15,6 C 31 % 1028,6 hPa 0,0 l/m 0,0 km/h (0 Bft) NO 45 -1,5 C -4,0 C 0,0 km/h (0 Bft)
12.03.2014 15:25 15,5 C 31 % 1028,6 hPa 0,0 l/m 0,0 km/h (0 Bft) NO 45 -1,5 C -4,0 C 0,0 km/h (0 Bft)
12.03.2014 15:30 15,4 C 31 % 1028,2 hPa 0,0 l/m 0,0 km/h (0 Bft) NO 45 -1,6 C -4,0 C 0,0 km/h (0 Bft)
12.03.2014 15:35 15,4 C 31 % 1028,2 hPa 0,0 l/m 0,0 km/h (0 Bft) NO 45 -1,6 C -4,0 C 0,0 km/h (0 Bft)
12.03.2014 15:40 15,3 C 31 % 1028,2 hPa 0,0 l/m 0,0 km/h (0 Bft) NO 45 -1,7 C -4,0 C 0,0 km/h (0 Bft)
12.03.2014 15:45 15,2 C 31 % 1028,2 hPa 0,0 l/m 0,0 km/h (0 Bft) NO 45 -1,8 C -4,0 C 0,0 km/h (0 Bft)
12.03.2014 15:50 14,8 C 31 % 1027,9 hPa 0,0 l/m 0,0 km/h (0 Bft) NO 45 -2,2 C -4,0 C 0,0 km/h (0 Bft)
12.03.2014 15:55 14,7 C 32 % 1027,9 hPa 0,0 l/m 0,0 km/h (0 Bft) NO 45 -1,8 C -4,0 C 0,0 km/h (0 Bft)
12.03.2014 16:00 14,6 C 33 % 1027,9 hPa 0,0 l/m 0,0 km/h (0 Bft) NO 45 -1,5 C -4,0 C 0,0 km/h (0 Bft)
12.03.2014 16:05 14,2 C 33 % 1027,9 hPa 0,0 l/m 0,0 km/h (0 Bft) NO 45 -1,8 C -4,0 C 0,0 km/h (0 Bft)
12.03.2014 16:10 14,0 C 33 % 1027,9 hPa 0,0 l/m 0,0 km/h (0 Bft) NO 45 -2,0 C -4,0 C 0,0 km/h (0 Bft)
12.03.2014 16:15 13,9 C 34 % 1027,9 hPa 0,0 l/m 0,0 km/h (0 Bft) NO 45 -1,7 C -4,0 C 0,0 km/h (0 Bft)
12.03.2014 16:20 13,9 C 35 % 1027,9 hPa 0,0 l/m 0,0 km/h (0 Bft) NO 45 -1,3 C -4,0 C 0,0 km/h (0 Bft)
12.03.2014 16:25 13,9 C 34 % 1027,9 hPa 0,0 l/m 0,0 km/h (0 Bft) NO 45 -1,7 C -4,0 C 0,0 km/h (0 Bft)
12.03.2014 16:30 13,8 C 34 % 1027,9 hPa 0,0 l/m 0,0 km/h (0 Bft) NO 45 -1,8 C -4,0 C 0,0 km/h (0 Bft)
12.03.2014 16:35 13,7 C 35 % 1027,9 hPa 0,0 l/m 0,0 km/h (0 Bft) NO 45 -1,5 C -4,0 C 0,0 km/h (0 Bft)
12.03.2014 16:40 13,8 C 36 % 1027,9 hPa 0,0 l/m 5,5 km/h (1 Bft) N-NW 337 -1,0 C 19,2 C 7,6 km/h (2 Bft)
12.03.2014 16:45 13,4 C 35 % 1027,9 hPa 0,0 l/m 5,5 km/h (1 Bft) N-NW 337 -1,7 C 19,2 C 7,6 km/h (2 Bft)
12.03.2014 16:50 13,4 C 35 % 1027,6 hPa 0,0 l/m 5,5 km/h (1 Bft) N-NW 337 -1,7 C 19,2 C 7,6 km/h (2 Bft)
12.03.2014 16:55 12,8 C 38 % 1027,6 hPa 0,0 l/m 0,0 km/h (0 Bft) N-NW 337 -1,2 C 19,2 C 0,0 km/h (0 Bft)
12.03.2014 17:00 12,7 C 38 % 1027,6 hPa 0,0 l/m 0,0 km/h (0 Bft) N-NW 337 -1,2 C 19,2 C 0,0 km/h (0 Bft)
12.03.2014 17:05 12,5 C 39 % 1027,6 hPa 0,0 l/m 0,0 km/h (0 Bft) N-NW 337 -1,1 C 19,2 C 0,0 km/h (0 Bft)
12.03.2014 17:10 12,1 C 40 % 1027,5 hPa 0,0 l/m 0,0 km/h (0 Bft) N-NW 337 -1,1 C 19,2 C 0,0 km/h (0 Bft)
12.03.2014 17:15 12,1 C 41 % 1027,5 hPa 0,0 l/m 0,0 km/h (0 Bft) N-NW 337 -0,7 C 19,2 C 0,0 km/h (0 Bft)
12.03.2014 17:20 11,4 C 42 % 1027,5 hPa 0,0 l/m 0,0 km/h (0 Bft) N-NW 337 -1,0 C 19,2 C 0,0 km/h (0 Bft)
12.03.2014 17:25 11,2 C 43 % 1027,5 hPa 0,0 l/m 0,0 km/h (0 Bft) N-NW 337 -0,9 C 19,2 C 0,0 km/h (0 Bft)
12.03.2014 17:30 11,2 C 43 % 1027,5 hPa 0,0 l/m 0,0 km/h (0 Bft) N-NW 337 -0,9 C 19,2 C 0,0 km/h (0 Bft)
12.03.2014 17:35 11,0 C 44 % 1027,5 hPa 0,0 l/m 0,0 km/h (0 Bft) N-NW 337 -0,8 C 19,2 C 0,0 km/h (0 Bft)
12.03.2014 17:40 10,6 C 45 % 1027,5 hPa 0,0 l/m 0,0 km/h (0 Bft) N-NW 337 -0,8 C 19,2 C 0,0 km/h (0 Bft)
12.03.2014 17:43 10,2 C 46 % 1027,5 hPa 0,0 l/m 0,0 km/h (0 Bft) N-NW 337 -0,9 C 19,2 C 0,0 km/h (0 Bft)
12.03.2014 17:45 10,1 C 46 % 1027,6 hPa 0,0 l/m 0,0 km/h (0 Bft) N-NW 337 -1,0 C 19,2 C 0,0 km/h (0 Bft)
12.03.2014 17:50 10,1 C 46 % 1027,6 hPa 0,0 l/m 0,0 km/h (0 Bft) N-NW 337 -1,0 C 19,2 C 0,0 km/h (0 Bft)
12.03.2014 17:55 9,8 C 47 % 1027,6 hPa 0,0 l/m 0,0 km/h (0 Bft) N-NW 337 -1,0 C 19,2 C 0,0 km/h (0 Bft)
12.03.2014 18:00 9,5 C 47 % 1027,6 hPa 0,0 l/m 0,0 km/h (0 Bft) N-NW 337 -1,2 C 19,2 C 0,0 km/h (0 Bft)
12.03.2014 18:05 9,2 C 48 % 1027,6 hPa 0,0 l/m 0,0 km/h (0 Bft) N-NW 337 -1,2 C 19,2 C 0,0 km/h (0 Bft)
12.03.2014 18:10 9,0 C 49 % 1027,4 hPa 0,0 l/m 0,0 km/h (0 Bft) N-NW 337 -1,1 C 19,2 C 0,0 km/h (0 Bft)
12.03.2014 18:15 8,8 C 50 % 1027,4 hPa 0,0 l/m 0,0 km/h (0 Bft) N-NW 337 -1,0 C 19,2 C 0,0 km/h (0 Bft)
12.03.2014 18:20 8,7 C 50 % 1027,4 hPa 0,0 l/m 0,0 km/h (0 Bft) N-NW 337 -1,1 C 19,2 C 0,0 km/h (0 Bft)
12.03.2014 18:25 8,6 C 50 % 1027,4 hPa 0,0 l/m 0,0 km/h (0 Bft) N-NW 337 -1,2 C 19,2 C 0,0 km/h (0 Bft)
12.03.2014 18:30 8,4 C 50 % 1027,6 hPa 0,0 l/m 0,0 km/h (0 Bft) N-NW 337 -1,4 C 19,2 C 0,0 km/h (0 Bft)
12.03.2014 18:35 8,3 C 50 % 1027,6 hPa 0,0 l/m 0,0 km/h (0 Bft) N-NW 337 -1,5 C 19,2 C 0,0 km/h (0 Bft)
12.03.2014 18:40 8,0 C 50 % 1027,6 hPa 0,0 l/m 0,0 km/h (0 Bft) N-NW 337 -1,8 C 19,2 C 0,0 km/h (0 Bft)
12.03.2014 18:45 7,9 C 51 % 1027,6 hPa 0,0 l/m 0,0 km/h (0 Bft) N-NW 337 -1,6 C 19,2 C 0,0 km/h (0 Bft)
12.03.2014 18:50 7,8 C 51 % 1027,7 hPa 0,0 l/m 0,0 km/h (0 Bft) N-NW 337 -1,7 C 19,2 C 0,0 km/h (0 Bft)
12.03.2014 18:55 6,6 C 51 % 1027,7 hPa 0,0 l/m 0,0 km/h (0 Bft) N-NW 337 -2,8 C 19,2 C 0,0 km/h (0 Bft)
12.03.2014 19:00 5,4 C 55 % 1027,7 hPa 0,0 l/m 0,0 km/h (0 Bft) N-NW 337 -2,9 C 19,2 C 0,0 km/h (0 Bft)
12.03.2014 19:05 5,3 C 56 % 1027,7 hPa 0,0 l/m 0,0 km/h (0 Bft) N-NW 337 -2,8 C 19,2 C 0,0 km/h (0 Bft)
12.03.2014 19:10 5,4 C 57 % 1027,8 hPa 0,0 l/m 0,0 km/h (0 Bft) N-NW 337 -2,4 C 19,2 C 0,0 km/h (0 Bft)
12.03.2014 19:15 4,8 C 57 % 1027,8 hPa 0,0 l/m 0,0 km/h (0 Bft) N-NW 337 -3,0 C 19,2 C 0,0 km/h (0 Bft)
12.03.2014 19:20 4,1 C 58 % 1027,8 hPa 0,0 l/m 0,0 km/h (0 Bft) N-NW 337 -3,4 C 19,2 C 0,0 km/h (0 Bft)
12.03.2014 19:25 4,0 C 58 % 1027,8 hPa 0,0 l/m 0,0 km/h (0 Bft) N-NW 337 -3,5 C 19,2 C 0,0 km/h (0 Bft)
12.03.2014 19:30 3,7 C 59 % 1027,7 hPa 0,0 l/m 0,0 km/h (0 Bft) N-NW 337 -3,6 C 19,2 C 0,0 km/h (0 Bft)
12.03.2014 19:35 3,6 C 59 % 1027,7 hPa 0,0 l/m 0,0 km/h (0 Bft) N-NW 337 -3,6 C 19,2 C 0,0 km/h (0 Bft)
12.03.2014 19:40 3,4 C 60 % 1027,7 hPa 0,0 l/m 0,0 km/h (0 Bft) N-NW 337 -3,6 C 19,2 C 0,0 km/h (0 Bft)
12.03.2014 19:45 3,2 C 61 % 1027,7 hPa 0,0 l/m 0,0 km/h (0 Bft) N-NW 337 -3,6 C 19,2 C 0,0 km/h (0 Bft)
12.03.2014 19:50 3,1 C 62 % 1027,7 hPa 0,0 l/m 0,0 km/h (0 Bft) N-NW 337 -3,5 C 19,2 C 0,0 km/h (0 Bft)
12.03.2014 19:55 2,8 C 64 % 1027,7 hPa 0,0 l/m 0,0 km/h (0 Bft) N-NW 337 -3,3 C 19,2 C 0,0 km/h (0 Bft)
12.03.2014 20:00 2,4 C 64 % 1027,7 hPa 0,0 l/m 0,0 km/h (0 Bft) N-NW 337 -3,7 C 19,2 C 0,0 km/h (0 Bft)
12.03.2014 20:05 2,3 C 65 % 1027,7 hPa 0,0 l/m 0,0 km/h (0 Bft) N-NW 337 -3,6 C 19,2 C 0,0 km/h (0 Bft)
12.03.2014 20:10 2,4 C 66 % 1027,7 hPa 0,0 l/m 0,0 km/h (0 Bft) N-NW 337 -3,3 C 19,2 C 0,0 km/h (0 Bft)
12.03.2014 20:15 2,5 C 67 % 1027,7 hPa 0,0 l/m 0,0 km/h (0 Bft) N-NW 337 -3,0 C 19,2 C 0,0 km/h (0 Bft)
12.03.2014 20:20 2,0 C 67 % 1027,7 hPa 0,0 l/m 0,0 km/h (0 Bft) N-NW 337 -3,5 C 19,2 C 0,0 km/h (0 Bft)
12.03.2014 20:25 1,9 C 68 % 1027,7 hPa 0,0 l/m 0,0 km/h (0 Bft) N-NW 337 -3,4 C 19,2 C 0,0 km/h (0 Bft)
12.03.2014 20:30 1,8 C 69 % 1027,6 hPa 0,0 l/m 0,0 km/h (0 Bft) N-NW 337 -3,3 C 19,2 C 0,0 km/h (0 Bft)
12.03.2014 20:35 1,5 C 69 % 1027,6 hPa 0,0 l/m 0,0 km/h (0 Bft) N-NW 337 -3,6 C 19,2 C 0,0 km/h (0 Bft)
12.03.2014 20:40 2,9 C 74 % 1027,6 hPa 0,0 l/m 0,0 km/h (0 Bft) N-NW 337 -1,3 C 19,2 C 0,0 km/h (0 Bft)
12.03.2014 20:45 3,2 C 72 % 1027,6 hPa 0,0 l/m 0,0 km/h (0 Bft) N-NW 337 -1,3 C 19,2 C 0,0 km/h (0 Bft)
12.03.2014 20:50 2,0 C 72 % 1027,6 hPa 0,0 l/m 0,0 km/h (0 Bft) N-NW 337 -2,5 C 19,2 C 0,0 km/h (0 Bft)
12.03.2014 20:55 1,6 C 72 % 1027,6 hPa 0,0 l/m 0,0 km/h (0 Bft) N-NW 337 -2,9 C 19,2 C 0,0 km/h (0 Bft)
12.03.2014 21:00 1,9 C 73 % 1027,6 hPa 0,0 l/m 0,0 km/h (0 Bft) N-NW 337 -2,4 C 19,2 C 0,0 km/h (0 Bft)
12.03.2014 21:05 1,9 C 73 % 1027,6 hPa 0,0 l/m 0,0 km/h (0 Bft) N-NW 337 -2,4 C 19,2 C 0,0 km/h (0 Bft)
12.03.2014 21:10 1,6 C 73 % 1027,6 hPa 0,0 l/m 0,0 km/h (0 Bft) N-NW 337 -2,7 C 19,2 C 0,0 km/h (0 Bft)
12.03.2014 21:15 1,6 C 73 % 1027,6 hPa 0,0 l/m 0,0 km/h (0 Bft) N-NW 337 -2,7 C 19,2 C 0,0 km/h (0 Bft)
12.03.2014 21:20 1,8 C 74 % 1027,6 hPa 0,0 l/m 0,0 km/h (0 Bft) N-NW 337 -2,3 C 19,2 C 0,0 km/h (0 Bft)
12.03.2014 21:25 1,3 C 73 % 1027,6 hPa 0,0 l/m 0,0 km/h (0 Bft) N-NW 337 -3,0 C 19,2 C 0,0 km/h (0 Bft)
12.03.2014 21:30 1,7 C 75 % 1027,5 hPa 0,0 l/m 0,0 km/h (0 Bft) N-NW 337 -2,2 C 19,2 C 0,0 km/h (0 Bft)
12.03.2014 21:35 1,7 C 75 % 1027,5 hPa 0,0 l/m 0,0 km/h (0 Bft) N-NW 337 -2,2 C 19,2 C 0,0 km/h (0 Bft)
12.03.2014 21:40 1,6 C 75 % 1027,5 hPa 0,0 l/m 0,0 km/h (0 Bft) N-NW 337 -2,3 C 19,2 C 0,0 km/h (0 Bft)
12.03.2014 21:45 1,3 C 75 % 1027,5 hPa 0,0 l/m 0,0 km/h (0 Bft) N-NW 337 -2,6 C 19,2 C 0,0 km/h (0 Bft)
12.03.2014 21:50 0,8 C 75 % 1027,4 hPa 0,0 l/m 0,0 km/h (0 Bft) N-NW 337 -3,1 C 19,2 C 0,0 km/h (0 Bft)
12.03.2014 21:55 0,6 C 75 % 1027,4 hPa 0,0 l/m 0,0 km/h (0 Bft) N-NW 337 -3,3 C 19,2 C 0,0 km/h (0 Bft)
12.03.2014 22:00 0,3 C 75 % 1027,4 hPa 0,0 l/m 0,0 km/h (0 Bft) N-NW 337 -3,6 C 19,2 C 0,0 km/h (0 Bft)
12.03.2014 22:05 0,2 C 75 % 1027,4 hPa 0,0 l/m 0,0 km/h (0 Bft) N-NW 337 -3,7 C 19,2 C 0,0 km/h (0 Bft)
12.03.2014 22:10 0,1 C 76 % 1027,4 hPa 0,0 l/m 0,0 km/h (0 Bft) N-NW 337 -3,6 C 19,2 C 0,0 km/h (0 Bft)
12.03.2014 22:15 0,1 C 76 % 1027,4 hPa 0,0 l/m 0,0 km/h (0 Bft) N-NW 337 -3,6 C 19,2 C 0,0 km/h (0 Bft)
12.03.2014 22:20 0,2 C 77 % 1027,4 hPa 0,0 l/m 0,0 km/h (0 Bft) N-NW 337 -3,3 C 19,2 C 0,0 km/h (0 Bft)
12.03.2014 22:25 0,9 C 78 % 1027,4 hPa 0,0 l/m 0,0 km/h (0 Bft) N-NW 337 -2,5 C 19,2 C 0,0 km/h (0 Bft)
12.03.2014 22:30 0,9 C 79 % 1027,4 hPa 0,0 l/m 0,0 km/h (0 Bft) N-NW 337 -2,3 C 19,2 C 0,0 km/h (0 Bft)
12.03.2014 22:35 0,3 C 78 % 1027,4 hPa 0,0 l/m 0,0 km/h (0 Bft) N-NW 337 -3,1 C 19,2 C 0,0 km/h (0 Bft)
12.03.2014 22:40 0,1 C 78 % 1027,4 hPa 0,0 l/m 0,0 km/h (0 Bft) N-NW 337 -3,3 C 19,2 C 0,0 km/h (0 Bft)
12.03.2014 22:43 0,0 C 78 % 1027,4 hPa 0,0 l/m 0,0 km/h (0 Bft) N-NW 337 -3,4 C 19,2 C 0,0 km/h (0 Bft)
12.03.2014 22:45 -0,3 C 79 % 1027,2 hPa 0,0 l/m 0,0 km/h (0 Bft) N-NW 337 -3,5 C 19,2 C 0,0 km/h (0 Bft)
12.03.2014 22:50 -0,3 C 79 % 1027,2 hPa 0,0 l/m 0,0 km/h (0 Bft) N-NW 337 -3,5 C 19,2 C 0,0 km/h (0 Bft)
12.03.2014 22:55 -0,3 C 79 % 1027,2 hPa 0,0 l/m 0,0 km/h (0 Bft) N-NW 337 -3,5 C 19,2 C 0,0 km/h (0 Bft)
12.03.2014 23:00 -0,1 C 79 % 1027,2 hPa 0,0 l/m 0,0 km/h (0 Bft) N-NW 337 -3,3 C 19,2 C 0,0 km/h (0 Bft)
12.03.2014 23:05 -0,1 C 80 % 1027,2 hPa 0,0 l/m 0,0 km/h (0 Bft) N-NW 337 -3,1 C 19,2 C 0,0 km/h (0 Bft)
12.03.2014 23:10 0,0 C 81 % 1027,2 hPa 0,0 l/m 0,0 km/h (0 Bft) N-NW 337 -2,9 C 19,2 C 0,0 km/h (0 Bft)
12.03.2014 23:15 0,3 C 81 % 1027,2 hPa 0,0 l/m 0,0 km/h (0 Bft) N-NW 337 -2,6 C 19,2 C 0,0 km/h (0 Bft)
12.03.2014 23:20 -0,2 C 80 % 1027,2 hPa 0,0 l/m 0,0 km/h (0 Bft) N-NW 337 -3,2 C 19,2 C 0,0 km/h (0 Bft)
12.03.2014 23:25 -0,5 C 80 % 1027,2 hPa 0,0 l/m 0,0 km/h (0 Bft) N-NW 337 -3,5 C 19,2 C 0,0 km/h (0 Bft)
12.03.2014 23:30 -0,7 C 80 % 1027,2 hPa 0,0 l/m 0,0 km/h (0 Bft) N-NW 337 -3,7 C 19,2 C 0,0 km/h (0 Bft)
12.03.2014 23:35 -0,9 C 80 % 1027,2 hPa 0,0 l/m 0,0 km/h (0 Bft) N-NW 337 -3,9 C 19,2 C 0,0 km/h (0 Bft)
12.03.2014 23:40 -1,0 C 80 % 1027,2 hPa 0,0 l/m 0,0 km/h (0 Bft) N-NW 337 -4,0 C 19,2 C 0,0 km/h (0 Bft)
12.03.2014 23:45 -1,0 C 80 % 1027,2 hPa 0,0 l/m 0,0 km/h (0 Bft) N-NW 337 -4,0 C 19,2 C 0,0 km/h (0 Bft)
12.03.2014 23:50 -0,9 C 81 % 1027,1 hPa 0,0 l/m 0,0 km/h (0 Bft) N-NW 337 -3,7 C 19,2 C 0,0 km/h (0 Bft)
12.03.2014 23:55 -0,5 C 82 % 1027,1 hPa 0,0 l/m 0,0 km/h (0 Bft) N-NW 337 -3,2 C 19,2 C 0,0 km/h (0 Bft)
_ Min-Zeit 04:25 15:50 05:45 - 23:55 - - 04:25 07:35 23:55
Minimum _ -4,9 C 31 % 1026,0 hPa - 0,0 km/h (0 Bft) - - -7,0 C -4,2 C 0,0 km/h (0 Bft)
_ Max-Zeit 15:10 09:10 12:44 23:55 16:50 - - 10:55 23:55 16:50
Maximum _ 16,2 C 88 % 1029,3 hPa 0,0 l/m 5,5 km/h
N-NW (1 Bft)
- - 5,7 C 19,2 C 7,6 km/h
N-NW (2 Bft)
Durchschnitt _ 4,1 C 65 % 1027,5 hPa #0,0 l/m 0,1 km/h (0 Bft) N-NW - -2,9 C 3,5 C 0,1 km/h (0 Bft)